RH
30 24 23 23 25 25 22 18 16 13 11 10 10 10 10 11 11 10 10 10 10 10 10 10 10 10 10 10 10 10 10 10 10 11 11 11 11 11 12 12 12 12 11 12 13 13 14 15 17 21 23 23 24 29 43 64 84 96 100 101 100 100 101 100 100 100 100 101 101 100 98 96 96 95 92 92 92 92 94 93 93 94 95 96 99
62 46 35 28 28 29 28 29 29 26 22 19 16 13 12 11 11 11 11 11 11 10 10 11 10 11 11 11 11 11 11 11 11 12 12 12 12 12 12 12 12 13 12 13 14 14 16 19 22 26 29 31 32 38 58 82 97 101 100 100 101 100 100 100 100 100 100 102 102 100 100 98 98 96 93 92 95 97 100 100 100 101 101 101 102
93 84 70 56 45 38 36 38 39 39 41 42 39 34 28 22 17 15 13 12 12 11 11 11 11 11 11 11 11 12 12 12 12 12 12 12 13 12 13 13 13 13 13 15 16 17 21 25 29 32 36 40 42 53 78 97 101 100 100 100 100 100 101 100 100 100 100 102 102 101 101 100 100 98 92 91 97 99 99 100 103 105 103 102 101
100 100 96 89 80 70 62 56 51 48 50 53 57 59 57 52 45 38 31 24 19 16 15 15 14 13 12 12 12 11 12 12 12 13 13 13 13 13 14 14 14 14 16 18 20 24 28 31 35 40 46 51 58 75 95 102 99 100 101 100 100 100 101 100 100 100 100 101 101 102 103 101 100 100 93 92 99 101 97 97 101 104 102 100 98
101 100 100 100 98 95 91 85 78 73 68 64 64 67 71 76 78 76 70 61 51 43 35 29 23 19 16 15 14 13 14 14 14 14 14 14 15 16 17 17 17 19 22 25 29 32 35 39 45 52 59 67 79 93 101 100 99 101 100 100 100 100 100 100 100 100 100 101 101 102 104 101 100 101 97 94 97 98 98 99 102 102 98 96 92
93 96 99 100 100 100 100 99 97 96 92 88 84 79 78 82 88 92 93 91 87 81 73 62 51 41 33 27 22 18 16 17 18 20 21 22 22 22 22 24 26 30 34 38 42 44 48 53 60 69 77 86 95 100 100 99 100 101 100 100 100 100 100 100 100 100 100 100 100 101 102 101 100 101 101 99 94 90 91 95 99 100 96 90 85
79 82 90 97 100 99 99 100 100 100 100 99 98 95 93 93 94 96 96 96 99 99 97 92 83 73 60 46 37 32 30 32 34 35 33 31 31 33 35 40 46 52 58 62 66 69 73 78 82 88 94 98 100 100 100 100 100 100 100 100 100 100 101 100 100 100 99 98 99 100 101 101 101 101 102 100 91 85 86 84 85 91 90 82 76
74 75 81 89 92 92 95 97 98 100 100 100 100 100 100 100 99 100 98 98 101 101 100 99 96 91 82 70 63 59 55 54 54 53 53 54 58 63 68 74 79 83 87 89 92 93 95 96 98 100 100 100 100 100 100 100 100 100 100 100 100 100 100 100 100 100 98 98 100 101 101 102 102 101 100 93 84 84 87 81 77 81 77 70 70
80 78 79 80 81 83 85 87 89 93 95 96 97 97 98 99 99 100 100 100 101 100 100 100 99 99 97 92 88 82 76 75 77 80 84 87 91 93 95 97 98 99 99 100 100 100 101 101 101 100 100 100 100 100 100 100 100 100 100 100 101 100 100 101 100 99 99 100 101 102 102 103 102 99 93 85 80 82 85 82 79 77 68 64 67
93 90 85 80 77 76 76 78 80 83 85 86 87 87 88 90 91 94 96 98 100 100 101 101 100 100 100 100 99 97 95 95 97 98 99 99 100 101 101 100 100 101 101 100 100 100 100 100 100 100 100 100 100 100 100 101 100 100 100 100 100 100 100 100 100 100 100 100 102 103 102 101 102 95 85 80 81 82 83 83 79 72 64 64 57
100 98 93 87 83 80 79 80 80 79 78 76 76 77 79 82 84 86 88 91 93 96 100 101 101 100 100 100 101 100 100 101 100 100 100 100 101 100 101 101 100 100 100 100 100 100 100 100 100 100 100 100 100 100 100 101 100 100 100 100 100 101 100 100 100 100 100 101 103 104 101 97 97 92 83 80 82 83 85 84 75 68 65 56 39
88 89 89 88 89 89 89 89 88 86 82 81 83 88 91 92 92 90 89 90 90 93 97 100 100 101 101 101 100 100 100 100 100 101 100 100 100 100 101 101 100 100 100 100 100 100 100 100 100 100 100 100 100 100 100 101 100 100 100 100 100 101 100 100 101 99 99 101 103 103 100 93 90 90 85 81 83 85 84 79 72 68 58 37 19
75 76 78 82 84 86 88 91 93 94 94 95 97 100 101 100 97 94 92 93 93 93 94 96 97 99 100 101 101 101 101 100 100 100 101 101 101 100 100 100 100 100 100 100 100 100 100 100 100 100 100 100 100 101 100 100 100 100 100 100 101 100 100 100 100 98 98 101 103 103 99 90 87 90 87 83 85 84 77 74 72 61 39 18 12
68 70 73 77 78 78 79 81 85 88 90 91 92 92 93 92 91 91 92 93 94 93 92 92 94 97 100 101 102 100 100 101 101 100 100 101 100 100 100 101 101 101 100 100 100 100 100 100 100 100 100 100 100 100 100 100 100 100 100 100 101 100 100 101 99 97 99 103 103 102 97 89 86 89 90 88 85 77 71 71 63 40 20 12 12
61 63 65 66 67 68 69 71 75 78 79 79 79 81 82 84 86 89 90 91 93 94 94 94 95 98 101 102 102 101 101 101 101 100 100 100 99 100 101 102 101 102 101 101 101 100 100 100 100 100 100 100 100 100 100 100 100 100 100 100 100 100 101 100 97 97 101 104 102 97 94 91 88 90 93 88 79 73 72 64 42 20 12 13 13
55 56 57 56 56 57 59 61 64 67 68 69 70 72 74 78 82 84 85 85 86 87 88 90 93 98 102 102 100 101 101 101 101 100 101 101 98 97 102 103 101 101 101 100 100 100 100 100 100 100 100 100 100 100 100 100 100 100 100 100 100 100 101 98 96 99 103 102 99 96 93 91 90 92 90 81 75 74 66 44 21 12 13 14 13
42 44 46 46 47 48 49 50 53 56 57 58 60 61 62 65 68 70 71 73 74 75 76 77 81 87 94 98 100 100 100 100 101 101 102 102 97 96 102 103 101 101 102 100 100 100 100 100 100 100 100 100 100 100 100 100 100 100 101 100 100 101 100 97 97 102 103 100 97 94 91 90 91 89 82 77 75 67 45 23 12 12 14 13 13
30 32 33 35 37 38 39 40 42 43 45 47 49 50 50 51 53 53 54 55 56 58 60 63 66 69 76 84 90 94 97 98 100 101 102 103 99 95 99 103 102 101 101 100 100 100 100 100 100 100 100 100 100 100 100 100 100 100 100 100 100 101 100 98 100 102 101 99 97 93 93 93 89 83 80 80 70 47 23 13 13 13 14 14 13
28 28 28 28 29 29 30 30 31 32 34 35 37 38 39 40 42 44 45 45 44 44 45 47 51 55 59 64 70 77 83 88 91 93 95 100 98 93 97 103 103 101 101 100 101 101 100 100 100 100 100 100 100 100 100 100 100 100 100 100 100 100 100 100 101 101 100 98 97 97 98 93 83 80 83 74 50 25 13 12 14 14 14 15 14
30 30 29 28 27 27 26 26 27 27 28 28 29 30 31 31 33 35 37 39 40 40 39 38 40 42 45 49 52 57 64 70 76 80 82 87 89 89 97 103 103 101 101 100 100 101 101 101 100 100 100 100 100 100 100 100 100 100 101 101 100 100 100 101 101 101 100 99 100 101 96 86 81 84 76 52 26 13 13 14 14 15 15 15 15
28 28 28 26 25 25 24 25 26 26 26 26 27 28 28 29 30 30 31 33 34 36 36 36 36 36 37 38 39 42 47 51 57 64 70 75 78 82 91 101 102 101 101 100 101 101 100 100 100 100 100 100 100 100 100 100 100 100 100 100 100 100 100 101 102 101 100 102 103 99 90 84 86 79 54 26 13 12 14 15 16 17 17 17 17
28 29 29 28 27 27 26 26 25 25 25 24 24 25 26 27 29 30 31 32 32 32 33 34 36 37 37 37 36 37 39 40 42 47 55 63 69 72 83 98 103 101 100 101 101 101 100 101 101 100 100 100 100 100 100 100 100 100 100 100 101 100 100 102 102 101 102 104 99 92 86 86 80 57 27 13 12 14 15 17 18 18 18 18 17
32 33 33 32 31 31 30 30 30 29 28 27 26 26 25 25 26 27 29 31 32 33 34 35 37 38 40 40 40 40 40 38 37 38 41 48 55 61 76 93 98 96 99 101 100 101 103 101 99 99 100 100 100 100 100 101 100 101 102 100 100 101 102 101 102 103 104 99 90 86 86 79 57 30 13 11 14 14 16 18 19 19 18 18 19
37 37 37 36 36 35 34 33 32 31 30 30 31 31 30 30 29 28 28 28 29 32 35 37 39 39 40 41 41 39 37 35 35 36 36 38 43 49 64 80 86 89 95 98 98 103 104 98 95 98 100 100 100 101 100 101 101 102 102 100 101 102 101 100 104 105 98 88 85 86 79 58 31 14 11 14 14 15 16 18 18 18 17 18 20
43 44 44 42 40 38 36 34 33 31 30 29 28 29 30 32 32 33 32 31 30 31 34 37 38 36 34 35 35 34 33 33 36 37 34 34 37 42 51 66 78 84 90 95 99 101 100 97 97 100 101 100 101 101 101 102 102 101 101 102 101 100 99 103 104 95 85 83 85 79 58 31 15 12 13 15 15 15 15 16 17 17 17 19 23
49 51 50 48 46 43 41 40 38 37 36 34 32 31 30 30 31 33 35 35 34 33 34 37 39 36 32 32 33 32 34 38 42 43 39 38 38 38 42 57 74 86 93 99 101 100 100 100 100 100 100 101 101 102 103 102 101 101 102 100 98 98 101 101 92 81 79 82 76 57 33 16 12 13 14 15 15 14 14 16 17 17 18 21 25
53 54 54 52 50 47 44 43 41 39 39 38 37 37 36 35 34 34 36 36 36 36 36 39 43 41 36 35 34 33 36 44 49 49 47 43 40 42 54 71 87 97 100 100 101 101 100 99 99 99 101 101 103 104 103 101 101 101 98 95 96 99 98 89 78 76 78 72 55 33 18 12 12 14 15 16 14 14 15 16 16 17 19 22 25
50 52 52 51 50 48 44 40 37 35 34 34 34 35 37 38 39 40 41 41 39 39 39 41 45 47 43 39 37 36 42 49 51 51 51 47 46 61 84 97 100 101 101 99 100 101 98 95 96 100 101 102 103 103 101 101 100 96 91 93 98 96 85 75 73 74 68 53 34 20 13 12 14 15 15 15 14 15 16 16 16 18 21 23 26
44 47 48 47 46 42 39 36 33 31 30 30 30 32 35 39 43 47 49 50 48 46 45 45 48 51 49 44 40 40 46 51 50 50 53 50 50 67 93 103 100 100 101 100 100 101 99 97 99 102 102 102 102 101 100 99 95 90 91 96 94 83 71 69 70 64 51 35 22 14 13 14 16 16 15 15 15 16 16 16 17 20 23 25 27
39 41 41 39 38 35 33 32 32 31 31 31 33 36 39 44 51 57 63 66 65 61 57 53 52 53 52 48 44 43 48 52 50 50 54 54 51 58 76 94 101 101 100 99 99 100 101 100 101 102 102 103 102 100 98 95 91 90 94 92 80 68 65 66 61 49 36 24 15 13 15 16 16 16 15 15 16 16 17 18 19 21 24 26 29
33 34 34 33 31 30 29 31 33 37 42 48 53 59 63 66 70 75 82 87 89 87 79 67 58 55 53 49 46 47 51 52 52 53 54 55 55 55 65 85 101 102 98 98 99 99 100 101 101 103 104 102 101 99 95 92 91 92 89 78 67 62 62 59 49 36 24 17 14 15 17 17 17 16 15 15 16 17 17 19 20 23 26 28 30
31 30 30 30 31 36 42 49 58 66 74 82 89 92 94 95 94 94 97 100 101 102 97 83 68 60 57 53 48 50 53 53 55 56 53 55 67 73 71 79 95 102 99 99 100 100 100 101 102 103 103 102 100 96 93 92 92 86 75 64 59 59 57 48 37 26 17 14 16 18 18 18 17 16 15 15 17 17 18 20 22 24 28 31 35
30 32 37 43 52 62 71 80 87 91 93 94 94 92 94 99 101 101 101 101 101 102 102 94 80 69 64 58 52 52 54 54 57 58 56 63 86 98 86 79 90 100 100 99 100 100 100 101 101 102 102 100 98 95 93 92 85 72 61 56 56 55 49 38 27 19 15 16 18 19 18 18 16 15 16 16 16 17 19 21 23 26 29 34 39
44 53 61 64 68 74 80 83 82 78 73 68 63 59 61 70 86 98 101 100 100 101 101 100 92 80 71 64 57 54 54 55 58 60 59 68 92 105 95 86 93 100 100 100 100 100 100 101 101 102 101 99 97 96 92 84 71 60 55 54 52 47 39 28 20 16 16 18 20 19 18 17 15 15 17 16 17 19 20 21 24 27 31 36 42
71 77 76 73 72 75 76 72 63 56 52 48 46 45 42 44 64 89 100 100 100 100 100 102 100 91 80 71 63 57 54 55 59 60 60 72 93 103 97 94 98 100 99 100 101 100 101 102 102 101 100 98 98 94 83 69 59 54 53 51 46 39 30 21 17 17 19 20 20 19 17 16 16 16 16 17 18 19 21 23 25 28 33 39 42
81 82 80 79 81 78 71 60 52 52 54 53 51 51 47 46 61 86 100 101 100 100 100 102 104 100 91 78 67 59 55 56 59 57 59 77 98 103 99 100 101 100 100 101 101 101 102 102 100 98 98 98 93 81 68 58 54 52 50 46 39 30 22 17 17 19 21 21 19 18 17 16 16 16 17 18 19 20 21 24 26 30 36 40 40
84 87 88 89 88 77 63 57 59 64 65 62 60 61 63 68 81 94 100 100 100 100 100 100 102 104 98 83 70 61 57 57 57 53 58 82 102 104 101 102 101 99 100 101 101 102 102 99 97 97 96 91 79 66 58 55 52 49 46 41 32 23 18 18 20 21 21 20 18 17 16 16 16 17 17 18 20 21 22 24 28 34 38 37 34
91 93 95 96 89 73 61 62 70 70 68 71 80 86 88 91 97 100 100 100 100 100 100 100 100 103 100 87 71 61 58 59 55 51 62 88 104 102 100 101 100 100 101 101 101 102 99 96 97 95 87 75 64 57 55 53 49 46 42 33 24 19 18 20 22 22 21 20 18 17 16 16 16 17 18 19 20 21 22 26 31 35 36 33 30
93 96 102 99 84 68 62 67 72 73 74 84 95 99 98 99 100 101 100 100 100 100 101 100 99 102 100 86 68 59 60 58 50 51 71 96 103 99 99 102 100 99 101 102 102 100 97 97 95 85 70 60 56 55 53 49 46 43 36 26 19 19 20 22 23 22 20 19 18 17 16 16 16 17 18 19 21 21 23 28 32 32 31 29 29
94 100 104 93 75 66 65 68 72 78 83 88 94 97 100 101 101 100 100 100 99 100 100 99 100 102 95 78 64 61 61 52 44 56 83 101 101 99 100 101 99 100 102 102 101 100 100 95 83 66 56 55 56 53 50 48 44 37 28 21 19 21 22 23 23 22 20 19 18 16 16 16 17 18 18 20 21 22 25 29 30 27 25 26 27
96 102 99 82 67 65 65 66 73 81 84 86 89 92 96 100 99 99 100 99 97 97 99 100 101 95 82 69 63 60 53 45 49 71 94 102 100 100 101 100 100 102 102 101 102 102 94 79 63 56 56 57 54 51 49 46 39 30 22 20 21 22 23 23 23 22 21 19 17 16 16 16 17 18 19 20 21 23 27 29 28 24 23 24 26
97 102 95 76 63 62 64 67 73 76 78 84 86 83 88 97 101 100 99 98 98 100 101 97 91 81 70 65 61 53 47 55 73 90 100 101 99 100 100 100 102 102 102 102 100 90 75 62 57 59 59 55 51 51 48 41 32 24 20 21 22 23 24 24 23 22 21 19 17 16 16 16 17 18 19 20 21 24 28 29 26 24 24 25 26
98 102 97 79 64 59 62 69 73 74 76 82 79 72 77 89 95 97 100 102 100 98 91 82 75 70 64 58 51 49 58 76 92 98 100 100 100 101 101 102 101 101 100 96 85 70 61 61 62 60 55 52 51 50 43 35 27 22 20 22 23 24 24 24 24 22 21 19 17 17 16 17 18 19 20 21 22 24 29 30 27 25 26 27 29
98 100 101 91 73 59 57 63 70 74 78 82 81 77 78 85 91 95 99 97 91 84 77 71 66 62 57 53 56 67 82 94 99 100 101 100 99 100 101 99 99 99 93 80 68 61 60 61 59 55 53 53 51 45 38 30 24 21 21 22 24 25 25 25 24 23 21 19 18 17 17 17 18 20 21 21 22 25 29 31 29 29 29 31 34
100 99 102 101 87 67 54 53 57 61 65 70 75 78 79 82 85 86 85 81 76 70 64 60 57 57 62 73 86 95 99 97 93 93 95 95 96 97 99 101 101 95 80 65 58 58 58 57 55 55 55 53 48 41 34 27 23 21 22 23 24 25 26 26 25 23 22 20 18 17 17 18 19 20 21 21 22 25 30 32 32 32 33 36 40
101 99 100 104 98 79 61 52 48 47 47 49 53 59 64 66 67 67 67 65 62 57 55 60 68 78 89 99 103 101 96 89 84 86 91 95 97 99 102 103 94 77 61 54 55 56 56 56 57 57 55 51 45 38 30 25 22 22 23 24 25 26 26 26 26 25 22 20 19 18 17 18 20 21 21 22 22 25 29 33 35 35 35 38 42
101 101 99 102 101 86 70 59 51 46 44 43 42 44 49 51 53 55 56 53 50 53 64 78 89 97 102 101 97 92 89 86 89 95 99 100 101 103 100 90 72 57 52 54 56 56 57 59 58 57 55 50 43 34 27 23 22 22 23 25 26 27 27 27 27 26 24 22 20 19 18 19 20 21 22 22 22 24 28 32 36 38 38 39 42
98 103 100 100 100 92 80 69 59 50 46 45 43 43 45 46 48 49 48 47 50 63 79 89 93 95 99 99 94 90 88 92 98 102 102 102 103 100 85 67 54 51 54 56 55 57 59 60 58 57 55 48 39 31 25 22 21 22 24 26 27 28 28 29 28 27 25 23 21 20 19 19 20 22 23 22 22 24 28 32 37 41 42 42 43
96 101 101 100 101 99 94 88 80 69 57 49 45 44 45 47 48 46 44 46 58 76 92 99 99 98 99 99 95 91 93 98 101 100 101 103 99 83 63 51 50 54 56 56 57 60 61 60 59 58 54 45 36 28 23 21 21 23 24 26 28 29 29 30 29 29 27 25 23 22 20 20 20 22 23 23 23 24 27 32 37 42 46 46 47
96 100 101 100 100 101 101 100 98 94 86 75 64 55 49 45 44 44 46 54 71 89 99 102 102 101 99 97 95 96 99 100 99 100 102 97 80 60 49 49 53 56 56 58 61 62 61 61 60 58 52 43 34 26 21 20 21 23 25 27 29 30 30 31 31 30 29 27 25 24 22 21 21 22 23 24 24 23 26 31 36 42 47 50 51
97 99 100 101 101 101 101 101 100 100 101 99 93 83 71 58 51 53 61 75 89 99 101 101 103 102 96 91 91 95 97 98 100 102 96 78 58 47 49 53 56 58 60 62 63 63 63 62 61 57 50 40 31 24 21 20 21 23 26 28 29 30 31 32 32 32 31 29 27 26 25 23 21 21 24 25 25 23 26 31 36 40 46 51 54
Wind_Speed
53 53 53 53 52 52 52 51 51 51 52 52 52 52 52 53 53 54 54 53 53 53 54 54 55 56 58 58 59 59 59 60 60 59 60 60 60 61 61 61 61 60 61 62 62 63 63 64 64 65 65 64 63 61 60 61 61 60 59 60 60 60 61 63 64 64 65 65 63 63 62 61 61 62 62 64 64 65 66 68 70 70 70 71 71
53 53 54 54 54 54 54 53 53 53 53 53 54 54 54 55 55 55 55 56 56 56 56 57 57 59 60 61 61 62 62 61 61 61 62 62 62 62 62 62 61 61 61 62 63 64 65 66 67 66 65 64 63 62 62 63 61 59 59 60 60 61 63 64 64 64 64 64 63 62 61 61 61 62 62 63 63 64 66 68 69 70 69 70 70
48 51 53 55 55 55 55 55 55 54 54 54 55 55 55 56 56 56 56 57 57 57 58 58 59 60 61 62 63 64 64 63 63 63 63 63 62 62 62 62 62 61 62 62 64 66 67 68 67 66 65 64 63 64 65 63 59 58 59 61 62 63 64 64 64 64 62 61 62 61 60 61 62 62 61 62 63 64 66 67 68 69 69 69 70
37 42 46 50 53 55 56 56 56 56 56 55 55 56 56 56 56 56 57 57 57 58 58 59 60 61 62 63 64 64 65 65 64 63 63 62 62 63 63 63 62 62 63 64 66 68 69 69 68 67 66 65 66 66 66 62 58 58 60 62 63 64 65 64 63 62 61 59 59 60 61 61 62 63 61 60 63 65 66 67 67 68 68 69 69
32 33 35 39 43 47 50 53 55 57 58 58 57 57 56 56 56 56 57 57 58 58 59 59 60 60 61 62 63 64 65 64 63 62 62 62 62 63 63 63 63 63 65 67 68 69 69 69 69 68 68 68 67 67 64 60 57 59 61 62 64 64 64 63 61 61 60 58 57 58 61 62 62 63 62 61 62 65 66 67 67 67 67 67 68
36 35 34 34 35 37 39 42 45 48 52 56 58 59 59 59 58 58 58 58 59 59 59 60 60 61 62 63 63 63 63 62 62 61 61 62 62 63 63 64 65 66 68 69 69 70 70 70 70 70 70 69 66 64 62 58 57 59 61 63 64 63 62 61 60 60 58 56 56 57 60 62 62 63 63 62 63 65 65 65 66 67 67 67 67
39 39 38 37 36 35 35 35 36 37 39 42 46 50 54 56 58 59 60 61 60 60 60 61 61 62 62 63 62 62 62 62 62 62 61 62 63 64 65 67 68 70 71 71 72 71 71 71 71 70 69 66 63 62 60 56 57 60 62 62 62 61 61 60 59 58 56 55 56 56 58 61 62 62 62 63 65 66 66 65 65 66 67 67 67
39 39 40 40 39 38 37 37 36 36 36 36 36 38 41 44 47 49 52 54 55 56 57 58 59 60 62 62 62 62 63 63 64 64 64 65 67 68 69 70 71 71 71 71 71 71 70 69 68 67 65 62 61 60 56 54 57 60 60 60 60 59 59 59 58 57 55 55 55 56 57 60 62 62 62 64 65 66 67 67 67 67 68 69 69
35 36 38 39 40 40 40 40 40 39 39 38 38 38 39 39 40 40 42 43 45 46 47 49 52 54 58 60 61 62 62 63 65 65 66 66 66 66 66 65 64 64 64 64 63 63 63 63 62 62 61 59 57 55 53 53 57 59 59 59 59 58 57 57 56 55 55 54 55 56 58 60 62 62 63 65 65 66 67 68 68 69 69 69 69
31 33 34 36 38 39 40 40 40 40 40 40 40 41 41 41 42 42 42 42 42 43 44 45 46 48 50 52 54 55 56 57 58 58 58 58 57 57 57 57 56 56 56 56 56 57 57 57 58 59 57 55 54 52 52 54 57 58 59 59 57 56 56 55 55 55 54 54 55 57 59 60 62 63 64 65 65 66 68 68 68 69 69 68 67
29 30 31 32 34 35 36 37 39 39 40 41 41 41 41 41 41 42 42 43 43 44 44 45 46 47 48 49 50 51 51 52 53 54 54 54 54 54 54 54 54 54 54 54 54 54 55 55 56 55 54 53 53 52 52 55 57 59 59 58 56 56 56 55 55 54 54 54 55 58 59 60 61 63 64 64 65 66 67 68 68 68 69 70 69
31 31 31 31 31 31 32 33 34 36 37 37 37 37 37 37 38 39 40 40 41 42 42 44 45 46 47 48 49 50 51 52 53 53 54 53 53 53 53 54 54 54 54 54 54 54 54 55 54 54 54 54 53 53 54 56 58 59 59 58 56 56 55 55 55 54 53 53 55 59 60 60 61 63 64 64 65 66 66 66 68 68 69 70 70
35 34 34 33 32 31 31 31 31 32 33 33 33 34 35 36 37 38 38 39 39 40 41 42 43 44 45 45 46 47 48 49 50 51 52 53 53 53 54 54 54 54 54 53 52 52 53 53 53 53 53 52 53 55 56 57 58 58 59 58 56 56 55 55 54 52 52 53 56 59 60 60 61 62 64 65 64 65 65 65 67 68 68 69 71
33 34 34 34 34 34 33 33 33 33 33 33 34 35 37 38 38 39 39 39 40 41 41 42 42 43 43 43 44 45 45 46 47 48 49 50 51 52 53 54 54 55 54 54 53 54 54 54 53 52 51 52 54 56 56 57 57 58 59 57 56 56 54 53 52 51 51 54 56 58 59 60 61 62 64 65 64 65 65 65 67 67 67 69 72
31 32 33 33 34 34 34 34 34 35 35 36 36 37 38 38 38 38 38 39 39 40 40 41 42 42 42 42 42 42 43 44 45 46 47 48 48 49 50 51 52 53 54 53 53 53 52 52 52 51 51 53 56 56 56 56 57 58 58 56 55 54 52 50 50 50 52 55 57 57 59 60 61 62 63 64 64 65 65 65 66 66 67 70 73
31 32 33 34 34 35 35 35 35 36 36 36 37 37 38 38 39 39 39 39 39 39 39 40 40 41 42 42 42 41 41 42 42 43 44 46 46 47 47 48 48 48 49 50 50 50 50 50 49 49 51 53 55 56 56 56 57 57 56 55 53 51 49 48 49 50 53 55 56 57 58 60 61 62 63 63 63 64 64 65 66 68 70 71 73
32 33 34 35 35 36 37 37 37 38 38 38 38 38 38 39 40 40 40 40 40 40 40 40 40 40 41 42 42 42 42 41 41 41 41 43 43 44 46 47 46 46 47 48 49 51 51 51 51 51 52 53 55 56 56 56 57 56 54 53 50 47 46 47 49 51 54 55 56 57 58 60 61 62 62 62 63 64 64 65 67 69 71 72 73
33 34 35 35 36 37 38 38 39 39 39 40 40 40 40 40 41 41 41 41 42 42 42 42 42 42 42 42 42 42 42 41 41 40 40 41 42 41 44 46 47 47 47 47 47 48 48 49 51 52 53 54 55 56 56 55 55 54 52 49 46 44 45 47 49 52 54 55 56 57 58 60 60 60 61 61 62 64 65 66 67 69 71 73 73
33 33 34 35 35 36 37 38 39 40 40 40 41 41 41 41 41 42 42 42 43 43 43 43 43 43 43 44 43 43 44 43 42 42 41 41 41 40 42 45 47 48 49 48 47 46 45 47 49 51 53 55 56 57 56 53 51 50 48 45 43 43 46 48 50 52 53 54 56 57 58 59 59 58 59 60 62 63 64 66 68 70 71 72 73
32 32 32 33 33 34 35 36 37 37 38 39 40 40 41 41 41 42 42 43 43 43 44 44 44 44 44 44 44 44 45 45 45 44 44 43 41 40 41 43 45 47 48 48 47 46 46 47 49 50 53 54 56 57 55 50 47 46 44 41 41 43 46 48 50 52 53 54 55 55 57 57 57 57 58 59 61 62 64 66 67 70 71 71 72
31 31 32 33 33 33 34 34 35 35 36 36 37 38 38 39 39 40 41 42 43 43 44 44 44 44 45 45 45 44 44 45 46 46 46 45 43 41 41 42 44 44 45 45 46 47 47 48 48 50 51 53 55 54 50 45 42 41 39 39 40 43 45 48 50 51 52 52 53 54 55 55 55 55 57 58 60 61 63 65 67 69 70 70 71
32 33 34 35 36 36 36 37 37 37 38 38 37 38 38 38 38 38 39 40 41 42 43 43 43 44 44 45 45 45 45 45 45 46 46 46 45 44 43 43 43 42 42 44 46 47 46 46 46 47 49 51 51 48 43 39 38 37 37 38 40 43 45 48 50 50 51 51 52 52 53 52 53 54 56 57 59 61 62 64 66 68 69 70 71
35 36 37 37 38 38 39 39 40 40 41 41 41 41 41 41 40 40 39 39 39 40 41 42 42 43 43 44 44 44 45 45 45 45 46 46 46 46 45 44 43 42 42 44 46 47 46 44 44 45 47 47 45 41 37 35 35 35 35 38 40 43 45 47 49 49 49 50 50 50 50 51 52 54 55 57 59 60 62 63 65 67 68 69 70
37 38 38 39 40 40 41 42 42 43 43 44 44 44 45 45 44 44 43 42 40 40 40 40 41 41 42 42 43 43 43 44 44 44 44 45 46 46 46 46 44 42 43 44 46 47 46 43 42 44 45 43 39 35 34 33 33 34 36 38 40 43 45 47 47 48 48 48 48 48 49 51 52 53 55 57 59 61 62 64 65 67 67 67 68
38 39 40 41 42 42 44 45 45 46 47 47 47 47 47 47 47 47 46 45 43 42 40 40 40 40 40 41 41 41 42 42 43 43 43 43 44 45 46 47 45 43 43 46 47 46 43 41 42 42 40 37 35 33 32 32 32 34 36 38 41 43 45 46 46 46 46 46 46 47 49 51 52 53 55 57 59 61 62 64 65 66 66 65 66
39 40 41 42 43 44 45 46 46 47 48 49 49 49 49 49 49 49 49 48 47 45 42 40 40 40 39 39 39 39 40 41 42 42 42 41 42 42 44 45 43 42 42 42 41 41 40 40 40 38 36 35 34 32 31 31 32 33 36 38 41 43 44 44 44 44 44 45 46 48 50 51 52 54 56 58 60 62 63 63 64 64 64 63 64
41 42 43 45 45 46 46 46 46 47 48 48 49 49 50 50 50 50 50 49 48 47 45 42 40 39 39 38 38 38 38 39 40 41 40 40 39 39 40 41 40 38 36 36 36 38 38 38 37 37 37 36 33 30 30 31 32 33 36 39 41 42 42 41 42 43 43 45 47 49 50 51 52 54 57 59 61 62 63 63 62 62 61 61 62
43 43 44 45 46 46 47 47 48 48 49 49 50 50 50 51 51 51 50 50 49 47 46 44 41 39 38 38 38 37 37 37 39 39 40 39 38 37 38 38 37 35 34 35 37 38 38 38 38 38 36 34 31 29 30 30 31 34 37 39 39 39 39 40 41 42 44 45 47 48 49 51 53 55 57 60 61 62 62 61 61 60 60 60 60
41 42 43 44 45 46 47 48 49 50 51 51 51 52 52 52 52 51 50 50 49 47 46 44 42 39 38 38 38 36 36 37 38 39 39 38 38 38 38 37 36 36 36 37 38 39 39 37 37 36 34 31 29 29 29 30 32 35 37 37 37 37 38 40 41 42 44 45 46 47 49 51 53 56 58 60 61 61 60 59 59 58 58 59 59
39 40 42 43 44 46 47 49 51 52 53 54 54 54 53 53 53 52 51 49 48 47 45 43 41 39 39 39 38 36 36 36 37 38 38 38 38 39 41 38 35 34 35 37 39 39 38 36 35 34 31 30 28 28 29 30 33 35 35 35 36 37 38 39 41 42 43 44 45 47 49 51 54 57 58 59 59 59 58 57 57 57 57 57 58
39 40 42 44 46 47 49 51 52 53 54 55 55 55 54 54 53 52 51 49 47 45 43 41 40 39 39 39 38 36 36 36 37 37 37 37 37 38 40 39 35 32 33 36 38 37 35 34 33 31 29 28 27 27 28 30 32 33 33 35 36 37 38 39 40 41 43 44 45 47 50 52 55 57 57 57 56 56 56 56 56 56 56 56 56
40 42 44 46 48 50 51 53 53 54 54 54 54 53 53 52 52 51 50 48 45 43 41 40 39 38 38 38 37 36 35 36 36 36 37 36 35 35 36 37 36 33 32 35 36 35 33 32 30 28 26 25 25 27 28 30 31 32 33 35 36 36 36 38 39 41 42 43 45 48 51 54 55 56 56 55 54 54 54 54 55 55 55 55 56
42 44 46 47 49 50 51 51 50 49 48 48 48 48 47 47 47 48 47 45 43 41 39 37 37 36 36 36 36 35 35 35 35 36 36 36 34 32 32 34 35 32 32 34 35 33 30 28 26 24 23 23 25 27 28 29 30 32 34 34 34 34 36 37 39 40 41 43 46 49 52 53 54 54 54 53 53 52 53 53 53 53 53 53 54
44 45 46 46 47 47 46 45 44 43 43 43 42 42 42 42 42 42 43 41 39 38 36 34 34 34 35 35 34 33 34 34 34 35 36 36 34 31 31 31 31 29 31 33 32 28 25 24 22 21 21 23 25 26 27 29 31 32 33 32 33 34 35 36 38 39 41 44 47 50 52 52 52 52 52 51 51 51 52 52 52 52 52 52 53
43 44 45 45 44 43 42 41 41 41 41 40 39 39 39 38 37 38 38 35 33 33 33 31 31 32 33 32 31 31 32 32 32 34 35 35 34 31 30 28 27 27 29 29 26 24 22 21 19 20 22 24 25 25 27 29 30 31 31 31 32 33 34 36 37 39 42 45 47 49 50 51 50 50 50 50 50 50 50 51 51 50 51 52 53
42 44 44 43 41 40 40 40 41 40 38 37 36 36 36 35 33 33 33 31 29 29 29 27 27 29 29 29 29 29 30 30 31 32 34 34 32 29 26 23 22 23 24 23 22 21 20 18 18 20 22 23 24 26 28 28 28 29 30 31 32 33 33 35 37 39 42 45 47 49 49 49 49 49 49 49 49 49 49 49 50 50 51 52 52
42 43 43 41 39 38 39 39 38 36 34 33 33 33 32 31 28 28 28 27 26 25 25 24 24 25 26 25 26 26 27 28 29 31 33 32 29 24 20 18 18 20 20 20 19 18 17 17 18 20 21 22 24 25 26 26 27 29 30 30 31 32 33 35 37 40 43 45 46 48 48 48 48 48 48 48 48 49 48 48 49 50 51 52 51
41 42 42 39 37 37 39 37 34 31 29 28 27 26 25 23 23 23 23 22 22 21 21 21 23 23 23 22 23 24 25 26 28 30 30 28 26 22 18 16 17 18 18 18 16 15 16 17 19 20 21 22 23 24 24 26 27 28 29 29 30 31 33 35 38 40 42 44 46 47 47 47 47 47 47 47 47 47 47 47 48 50 51 51 49
42 41 40 37 35 36 36 34 30 27 24 22 21 20 16 14 13 14 15 16 17 17 18 20 22 22 21 20 20 21 23 25 27 28 27 25 23 19 17 16 17 17 16 15 14 15 17 17 18 20 21 22 22 22 24 25 26 27 28 28 29 31 33 36 38 40 42 44 46 46 46 46 46 46 46 46 46 46 46 47 48 50 50 48 46
42 40 37 34 33 34 33 30 27 25 21 18 17 16 13 10 7 5 5 7 10 12 15 17 19 18 17 18 18 20 22 24 26 26 25 23 20 18 17 17 16 14 13 13 14 15 16 18 19 20 20 20 21 22 23 24 25 26 26 28 29 31 34 36 38 40 43 44 45 46 45 45 45 45 45 45 45 45 45 46 48 49 47 45 43
41 37 33 31 31 31 29 27 25 23 18 15 14 13 12 12 10 8 5 4 6 9 12 14 14 14 14 15 17 20 22 23 24 24 22 20 17 17 17 16 14 13 13 14 15 16 17 19 19 19 19 19 20 22 23 23 24 25 26 27 29 31 34 36 38 40 43 44 45 45 44 44 44 44 44 44 44 44 44 46 47 47 45 43 42
40 34 29 28 29 29 27 25 24 21 16 12 10 10 11 12 12 10 8 7 8 9 9 10 10 11 13 15 18 21 21 22 22 21 18 16 15 15 14 13 12 13 14 14 16 18 18 18 17 17 17 19 20 21 22 22 23 24 25 27 30 32 34 36 38 41 43 44 44 44 44 43 43 43 43 43 43 43 43 45 45 45 43 42 41
39 32 26 26 27 26 24 23 22 20 17 13 11 10 10 10 11 10 9 8 7 7 7 7 9 11 14 17 19 20 20 19 18 16 13 11 12 12 11 12 13 14 15 16 17 17 16 15 15 16 18 19 20 20 21 22 23 24 25 27 30 32 34 36 39 41 43 44 44 43 43 42 42 43 43 42 42 42 42 43 44 44 43 42 42
40 32 25 25 26 25 22 21 18 17 16 15 13 13 12 11 10 10 9 7 7 7 8 10 12 14 16 17 17 17 17 16 13 10 9 9 10 11 12 13 14 15 15 16 15 15 14 14 15 16 18 18 19 20 21 22 22 24 26 28 30 32 34 36 39 41 43 44 43 42 42 41 42 42 42 41 41 41 41 42 43 43 43 42 42
41 33 25 23 24 24 21 20 17 15 14 14 14 13 13 11 10 9 8 8 8 9 11 12 13 14 15 15 14 14 13 11 8 7 7 8 10 11 12 13 13 14 14 14 13 14 14 15 15 16 17 18 19 20 20 21 23 24 26 28 30 32 34 36 38 41 42 43 43 42 41 41 41 41 41 41 40 40 40 41 42 42 42 42 43
41 36 27 22 22 23 21 20 18 16 14 13 12 12 11 10 10 9 9 10 11 11 12 12 13 13 13 14 13 12 10 8 6 6 7 9 10 11 12 13 14 14 14 13 13 14 14 15 15 16 17 18 19 20 20 21 23 24 26 28 30 32 34 36 38 40 42 42 42 41 40 40 40 40 40 40 39 40 40 40 40 42 42 42 42
40 38 31 23 20 21 21 20 19 18 16 14 13 12 11 10 10 10 11 12 12 12 12 12 13 13 13 12 11 9 7 6 6 6 7 8 10 11 13 14 14 14 13 13 13 13 14 15 16 17 17 18 19 20 20 21 23 24 26 28 30 32 33 36 38 40 41 42 42 41 40 39 39 40 40 39 38 39 39 39 39 40 41 41 42
37 37 34 27 21 19 20 20 20 19 18 16 15 13 12 11 11 12 12 12 11 11 11 13 14 13 11 9 7 7 6 5 5 7 8 9 11 13 14 14 13 13 13 13 13 14 15 16 16 17 17 18 19 19 20 21 22 24 25 27 29 31 33 35 37 39 40 41 41 40 39 39 38 39 39 39 38 38 39 39 38 39 40 41 41
35 35 33 29 24 20 19 19 19 19 19 19 17 16 15 14 13 13 12 11 10 11 13 15 13 10 8 6 5 5 4 4 6 8 9 11 12 13 13 13 12 13 13 13 14 15 15 16 16 17 17 18 19 19 20 21 22 23 25 27 29 31 33 34 36 38 39 40 41 40 39 38 38 38 38 38 37 37 38 38 38 38 38 40 41
33 33 32 30 27 23 21 20 19 19 19 19 18 18 17 16 14 13 11 10 10 12 14 15 12 8 6 5 4 4 5 6 8 9 10 12 13 13 13 12 12 12 13 13 14 15 16 16 17 17 17 18 19 19 20 21 22 23 25 27 29 31 32 34 35 37 38 40 40 39 38 38 37 37 37 38 37 36 36 38 38 37 37 38 40
31 31 31 30 28 24 21 20 19 19 19 19 18 17 16 15 14 12 10 10 11 13 15 13 10 7 6 6 5 6 7 7 8 10 12 13 13 12 12 12 12 12 13 14 15 15 16 16 16 17 17 18 18 19 20 21 22 23 25 27 29 30 32 33 34 36 37 39 39 39 38 37 37 37 37 37 37 36 35 36 37 37 37 37 38
Wind_Direction
254 256 257 258 259 259 258 258 258 258 258 259 260 260 261 261 262 263 264 265 264 265 265 266 267 268 269 270 271 271 272 272 273 274 275 276 277 278 279 280 281 282 283 284 285 286 286 287 289 290 292 293 293 294 295 296 296 295 294 294 295 295 296 297 298 300 301 301 300 300 300 300 300 300 301 303 305 306 308 309 310 310 311 311 310
253 254 256 258 259 260 260 260 260 260 260 261 261 262 262 263 264 265 266 266 266 267 267 267 268 269 270 271 272 272 273 273 274 274 275 276 276 277 278 279 280 281 282 283 284 285 285 287 289 290 291 292 293 294 295 297 297 295 294 294 295 295 296 297 298 299 300 300 300 299 299 299 299 300 301 303 305 307 309 310 310 310 310 310 308
255 254 255 257 258 260 261 262 262 261 261 262 262 263 264 264 265 266 267 267 268 268 269 269 270 270 271 272 272 273 273 274 274 274 274 275 276 277 277 279 280 281 281 282 283 284 285 287 288 289 291 292 293 294 296 297 297 295 294 295 295 296 297 297 298 299 299 299 299 299 299 299 299 300 301 304 305 307 308 309 309 309 309 309 308
261 260 259 258 259 259 260 262 263 263 263 263 263 263 264 265 266 266 267 268 268 269 269 270 270 271 272 272 273 273 273 273 273 274 274 275 276 277 278 279 280 281 282 282 283 284 285 286 287 289 291 292 294 295 296 298 296 295 295 295 296 296 296 297 298 298 298 298 298 298 298 299 300 301 302 305 306 307 309 309 309 309 309 308 307
266 265 264 263 262 262 262 262 263 264 264 264 265 265 265 266 266 267 267 268 268 268 269 270 270 271 271 272 272 272 273 273 274 275 276 276 277 278 279 280 281 281 282 282 283 284 284 286 287 289 291 293 294 295 297 297 295 295 295 295 296 296 296 297 297 297 297 296 297 297 297 298 300 302 303 305 307 308 309 309 309 308 308 308 308
269 268 268 267 266 266 266 265 265 265 265 265 266 266 266 267 267 267 268 268 269 269 269 270 270 270 270 271 271 272 273 274 275 276 277 277 278 279 280 281 281 282 282 282 283 284 285 286 288 290 291 292 294 295 296 296 295 295 295 295 295 295 295 296 296 296 296 296 296 295 297 299 301 302 304 306 307 307 308 308 308 308 308 309 309
273 271 271 271 270 270 270 269 268 267 268 268 267 267 267 267 268 268 269 269 270 271 271 271 271 271 271 271 271 272 273 274 275 275 276 277 278 278 279 280 281 281 282 282 283 284 285 287 288 289 291 292 294 294 294 294 294 295 295 294 294 294 295 296 295 295 296 296 295 295 297 300 301 302 304 306 307 307 308 309 308 308 309 309 309
275 274 273 273 273 273 273 273 272 271 270 270 270 270 269 269 269 269 269 270 270 271 272 274 274 274 273 272 272 273 273 274 274 275 276 276 277 278 279 280 281 282 283 283 284 285 286 287 288 289 290 292 293 292 292 293 293 294 294 292 292 293 295 295 295 295 295 295 295 296 299 300 301 303 304 306 308 308 308 309 309 309 309 309 310
279 277 275 274 274 274 275 275 275 275 274 273 273 272 272 272 272 271 270 270 270 271 272 274 275 275 275 274 274 273 274 274 275 276 276 277 278 279 280 281 282 283 284 285 285 286 286 287 287 288 289 290 291 290 290 291 292 292 291 291 292 293 294 295 295 295 295 296 296 298 300 301 301 303 305 306 308 309 308 309 310 309 310 311 311
284 283 281 279 277 276 277 277 277 277 277 277 276 275 275 274 274 274 274 272 271 270 270 271 272 273 273 273 274 274 274 275 275 276 277 278 278 279 280 281 282 283 283 284 284 284 285 286 286 287 288 289 290 290 289 289 289 289 289 290 292 293 294 295 295 295 296 296 298 299 300 301 303 304 306 308 309 309 309 309 309 310 311 311 311
289 288 287 286 283 281 280 279 279 280 279 279 279 277 276 276 275 275 276 275 275 273 272 271 270 270 270 271 272 273 273 274 274 275 276 276 277 278 279 280 280 281 282 282 283 284 284 285 285 287 288 289 290 289 288 287 287 288 289 290 292 293 294 295 295 296 297 297 299 300 301 302 304 305 307 309 310 310 309 309 310 311 311 311 311
290 289 288 289 288 287 285 282 281 280 280 280 279 277 276 275 275 275 275 276 276 275 274 272 271 271 270 270 270 271 271 272 272 273 274 275 276 277 278 279 280 281 281 282 283 284 284 285 285 287 288 289 289 288 287 286 287 288 289 291 292 293 295 295 296 296 297 298 300 300 301 304 306 306 308 310 310 310 310 310 310 311 312 312 313
289 288 288 287 287 288 287 285 282 279 278 277 276 276 275 275 276 276 276 275 275 275 274 274 274 274 273 273 272 272 272 272 273 273 273 274 274 275 276 277 278 280 281 282 283 283 284 285 286 287 288 289 289 287 286 286 287 288 289 291 292 294 295 295 295 295 297 299 300 301 303 306 307 307 309 310 310 310 310 310 311 312 314 314 315
288 288 287 286 286 286 286 285 283 280 278 278 277 277 277 277 278 278 277 276 275 274 274 274 273 274 274 274 275 275 274 274 274 275 275 274 274 274 275 275 276 277 278 279 280 281 283 284 285 287 288 288 287 286 285 286 287 288 289 290 292 293 294 294 294 296 298 300 301 303 305 308 308 308 309 309 310 310 310 311 312 314 315 315 316
287 287 286 285 285 285 285 284 282 280 279 279 278 278 278 278 278 277 278 277 277 276 275 274 273 273 273 273 274 275 276 275 275 276 276 276 276 276 277 277 277 277 278 279 281 283 284 285 285 286 287 286 286 285 285 286 287 287 288 291 292 293 293 293 294 297 299 300 302 305 307 308 309 309 309 310 311 311 312 313 313 314 315 317 319
286 285 285 285 285 285 284 284 282 282 281 280 280 279 279 279 279 279 279 278 278 278 278 278 277 276 274 274 274 275 276 277 277 277 278 278 278 278 279 279 280 280 281 281 282 282 284 285 285 285 285 285 285 285 286 286 286 287 289 291 292 292 292 292 295 298 300 301 304 307 308 309 309 309 309 310 311 312 313 314 315 316 317 319 320
287 286 286 285 285 285 285 285 284 284 283 283 282 282 281 281 281 281 281 280 280 280 280 280 280 278 277 276 275 275 276 278 279 280 281 281 280 279 279 280 281 282 282 282 282 281 282 283 284 284 283 283 284 285 286 286 285 287 289 290 290 290 291 293 296 299 301 303 307 309 309 309 309 309 310 311 312 313 315 316 317 317 318 319 321
289 288 287 286 286 285 285 285 285 284 284 284 283 282 282 281 281 281 281 281 281 281 281 281 280 279 279 278 277 277 278 278 279 280 281 282 282 282 280 280 280 280 280 282 283 284 284 284 283 283 282 282 283 285 285 285 285 287 289 289 289 290 291 295 298 300 303 306 309 309 309 309 310 311 311 312 314 316 317 317 317 318 319 320 322
290 288 287 286 285 285 285 285 284 284 284 284 283 283 282 282 281 281 281 281 281 281 281 281 281 280 280 279 279 279 279 279 279 279 279 280 281 282 282 281 279 278 279 281 282 284 285 284 284 284 283 283 284 284 284 284 285 287 287 287 288 290 293 297 300 303 306 309 309 309 308 309 311 312 313 314 316 317 317 318 318 319 320 322 322
291 290 289 288 287 287 286 286 286 285 285 285 285 284 284 283 283 282 282 282 282 282 282 281 281 281 280 280 280 280 280 280 280 279 279 280 281 282 283 283 282 281 281 282 282 282 283 284 285 286 286 286 285 284 284 284 284 284 285 286 289 291 295 299 302 305 309 309 309 308 309 310 312 313 314 316 317 318 317 318 319 320 322 323 323
294 294 294 294 293 292 292 291 290 290 289 289 288 288 287 286 285 284 283 282 282 282 282 282 282 282 282 281 281 280 280 280 280 280 280 280 281 283 284 285 286 285 284 284 283 283 284 285 287 288 288 288 287 284 282 281 281 282 284 287 290 293 298 302 305 308 310 309 308 309 310 312 313 314 316 317 317 317 318 319 320 322 323 323 322
297 297 297 296 296 296 295 295 294 294 293 292 292 291 291 290 289 288 286 284 282 281 281 282 282 282 283 283 283 282 282 281 280 279 279 279 280 281 282 284 285 287 288 288 287 287 287 289 290 292 293 291 287 283 280 279 279 282 285 289 292 296 300 304 307 309 309 308 308 310 311 313 314 316 317 317 317 318 319 321 322 323 323 322 322
298 298 297 297 297 296 296 295 294 294 293 293 293 292 292 291 291 290 289 288 286 284 282 281 282 282 283 283 284 284 284 284 282 281 279 278 278 278 279 280 283 286 288 288 288 288 288 290 293 295 294 290 285 280 278 278 280 284 288 291 295 299 303 306 308 309 308 308 310 311 312 314 316 316 317 317 318 319 321 322 323 323 323 322 321
297 297 297 297 297 297 296 296 295 294 293 293 292 291 291 291 290 290 289 289 289 287 286 284 283 283 283 283 284 284 285 285 285 283 281 279 278 277 277 278 281 285 286 285 286 287 288 289 293 294 291 286 281 277 277 279 283 287 290 294 298 302 306 308 309 308 308 309 311 312 314 316 316 316 317 317 319 321 322 323 323 322 322 322 321
296 296 296 296 296 296 296 296 296 295 295 294 293 292 291 290 289 289 288 288 288 288 288 287 286 284 284 284 284 285 285 285 284 284 283 281 278 276 276 277 280 283 284 285 286 286 287 290 293 291 287 281 276 276 278 283 287 290 294 298 302 306 308 309 308 309 309 311 313 314 316 316 317 317 318 319 320 322 324 324 322 322 322 322 322
294 293 293 292 293 293 293 293 294 294 293 293 293 292 291 290 289 288 287 287 286 286 286 287 286 285 284 285 285 286 286 286 286 286 285 283 280 277 276 277 279 283 284 285 287 288 289 291 290 285 279 276 275 277 282 286 290 294 298 302 306 309 309 309 309 310 311 313 315 316 316 317 317 318 319 320 322 323 324 323 322 322 322 323 323
292 290 290 290 290 290 290 291 292 292 292 292 291 291 290 289 288 287 286 286 285 284 284 285 285 284 284 284 285 286 288 288 289 289 288 286 281 277 275 276 278 282 284 287 290 291 288 285 281 277 275 276 278 281 286 290 294 299 303 307 309 309 309 309 311 312 314 316 316 316 317 317 318 320 321 322 323 324 323 322 322 322 323 323 324
292 290 289 289 289 290 291 293 293 293 293 292 291 290 289 288 287 286 285 285 284 283 282 282 282 283 283 282 284 286 288 288 290 292 293 290 283 275 275 277 277 277 282 288 289 286 282 278 276 276 276 277 281 285 290 295 299 303 307 308 308 308 310 312 313 315 316 317 317 317 318 319 320 321 323 323 324 323 323 322 323 323 323 324 324
293 292 291 290 291 292 293 294 294 294 293 292 290 289 288 287 287 286 285 284 283 282 281 280 280 281 280 280 282 284 285 287 291 293 294 293 285 276 275 281 281 276 279 284 283 280 278 277 276 276 277 280 284 289 293 298 303 306 307 308 309 311 313 314 315 316 316 317 318 319 319 320 322 323 324 324 323 323 323 323 323 324 324 325 325
295 295 295 295 295 294 294 294 293 292 292 291 289 288 287 286 286 285 285 284 282 281 280 279 278 277 277 278 280 282 283 286 290 293 295 295 290 281 277 282 287 284 280 281 281 278 276 275 275 277 280 283 286 291 296 301 305 306 308 309 312 314 315 314 315 316 317 318 319 320 321 322 324 324 324 324 323 323 323 324 325 325 325 326 326
300 300 299 299 297 296 295 293 292 291 290 289 288 287 285 284 284 284 283 283 282 282 280 277 275 275 274 275 277 279 282 286 290 294 297 296 293 286 279 280 287 287 280 277 276 274 273 273 276 278 282 285 289 295 300 304 306 308 310 313 314 314 314 314 316 317 318 320 321 322 323 324 325 324 324 324 324 324 324 325 325 326 326 327 327
306 304 302 301 299 297 295 294 292 291 289 287 286 285 284 283 282 281 281 282 282 282 279 276 273 272 272 273 276 278 281 286 290 296 298 296 293 289 283 282 285 284 276 272 271 269 269 272 275 279 283 288 294 300 303 305 308 311 313 313 313 313 314 316 317 319 320 322 322 324 325 325 325 325 325 325 325 325 325 326 326 327 328 328 329
308 307 305 304 302 300 298 297 295 294 292 290 288 286 284 283 281 279 279 280 281 281 279 275 272 270 270 272 274 277 280 285 290 296 299 296 291 288 285 284 283 280 273 268 266 264 267 272 277 283 289 295 299 303 305 308 311 312 312 311 312 314 316 318 319 321 322 324 325 326 326 326 325 325 325 325 326 327 327 327 328 328 329 330 330
313 312 310 309 307 305 303 302 300 299 297 295 292 290 287 284 280 278 276 277 278 279 278 275 271 269 269 270 273 275 278 283 290 296 298 295 291 287 283 280 279 275 270 265 264 266 271 276 282 289 295 299 302 305 308 311 312 311 310 311 313 316 318 320 322 323 325 326 327 327 326 326 326 327 327 327 328 328 328 329 329 329 330 331 331
316 315 314 314 312 309 307 306 305 303 301 297 294 291 288 285 280 275 273 274 275 276 276 274 270 269 268 269 271 273 277 283 291 296 297 297 293 286 278 274 275 272 268 265 267 272 276 280 288 296 299 302 306 309 311 311 310 310 311 314 316 318 321 323 325 326 327 328 328 327 327 328 328 328 328 329 329 330 330 330 330 331 332 332 332
315 315 316 316 314 311 310 310 309 306 303 299 296 291 288 285 281 274 270 270 271 273 273 271 270 269 269 268 269 272 277 284 292 296 297 296 293 284 276 274 275 271 268 270 273 277 280 287 295 300 302 306 309 311 310 310 310 311 314 316 318 321 324 325 327 328 329 329 329 329 329 329 329 329 330 330 331 331 331 331 332 332 333 333 333
317 317 318 318 315 314 314 314 312 309 306 304 302 298 293 289 283 275 269 268 269 272 272 268 267 270 271 268 268 273 278 285 293 296 295 296 298 294 286 280 275 271 273 277 278 281 288 297 301 304 307 309 310 310 309 310 313 315 317 318 321 324 326 328 329 331 331 330 330 331 331 331 331 331 332 332 332 333 333 333 334 334 334 334 334
321 321 321 320 317 317 318 318 316 314 314 315 315 312 305 296 287 278 270 266 268 271 271 267 265 268 270 270 270 274 281 288 293 295 294 297 302 300 290 280 278 279 280 281 283 290 298 302 304 307 309 309 309 310 311 313 315 317 318 321 325 327 329 331 332 332 333 332 333 333 333 333 333 333 333 334 334 334 335 335 336 336 336 336 337
327 325 324 322 322 323 323 322 321 324 326 326 328 327 321 309 295 280 267 260 260 261 262 262 263 266 269 270 272 277 284 290 294 293 293 297 299 294 285 283 285 284 282 285 293 299 302 304 308 310 310 310 310 312 314 315 316 318 321 325 327 329 331 333 334 335 335 335 335 335 335 334 334 334 335 335 336 336 336 337 337 338 338 339 340
332 328 326 326 328 328 328 327 329 333 334 332 334 339 343 344 340 318 272 257 255 257 261 263 264 265 267 270 275 282 288 292 293 293 294 298 297 290 286 288 289 287 289 295 300 302 305 310 312 311 310 311 312 314 315 317 318 321 325 328 329 332 335 336 337 337 337 337 337 336 336 335 335 336 336 337 337 338 338 339 339 340 341 342 343
336 332 330 332 333 333 334 335 337 339 338 334 336 348 359 2 2 3 350 311 284 273 271 268 264 264 269 275 283 290 292 293 294 295 297 299 295 289 288 289 290 292 297 301 303 308 311 311 309 308 309 312 314 316 317 318 321 325 328 330 333 336 338 338 339 339 339 338 338 338 337 336 337 337 338 339 339 339 339 340 341 342 343 345 345
339 335 334 336 338 339 341 343 342 341 339 333 332 348 1 1 356 349 335 315 297 282 274 269 269 275 283 288 291 293 294 295 298 301 302 299 294 290 289 290 294 298 304 308 310 310 308 305 305 309 313 315 316 317 318 321 325 328 331 333 337 340 340 341 341 341 340 340 340 339 338 337 338 339 340 340 340 340 340 341 343 344 345 346 347
342 337 335 339 342 343 347 349 346 342 338 331 328 337 348 351 346 340 329 317 307 298 291 292 293 294 295 296 295 296 298 300 301 302 301 296 291 291 293 298 303 307 309 308 305 303 302 306 312 316 316 315 316 318 320 324 329 331 334 338 341 342 342 342 342 342 342 342 342 340 339 339 340 341 341 341 341 341 341 343 344 346 347 347 348
345 339 335 337 341 343 347 351 352 348 343 339 337 341 348 351 350 346 341 334 326 318 311 308 306 304 302 301 301 302 302 299 297 299 302 299 296 298 302 304 306 306 304 302 302 306 312 317 317 315 315 316 318 321 324 327 331 335 339 342 343 344 344 343 343 344 344 344 342 341 340 340 342 343 343 342 342 342 342 344 346 347 348 349 349
348 343 335 333 338 341 342 345 350 355 356 356 355 354 355 358 356 352 346 336 326 321 318 315 312 310 308 305 304 303 300 295 294 301 304 296 293 297 300 302 304 305 305 308 313 318 319 317 314 315 317 320 321 324 327 330 335 339 342 344 345 345 344 344 345 346 346 345 343 342 341 342 343 344 344 343 343 342 343 345 347 349 349 350 350
349 347 340 333 335 338 337 337 341 347 351 356 358 357 355 353 349 343 337 331 326 324 323 319 315 312 310 306 304 302 294 283 276 280 282 284 291 300 307 311 313 314 315 318 320 319 316 315 316 318 320 322 324 326 330 334 338 342 344 345 345 345 345 345 346 347 348 347 345 343 343 344 345 345 345 344 343 343 344 346 348 350 351 351 350
349 349 347 340 336 336 336 333 333 336 339 343 346 347 345 343 340 336 331 328 326 326 326 324 322 319 315 308 300 291 278 267 269 280 291 301 310 316 319 319 318 317 319 321 320 318 317 317 319 321 323 324 326 329 332 336 340 344 345 346 346 346 346 347 348 349 349 348 346 344 344 345 346 347 346 345 344 345 346 347 348 350 352 352 352
349 349 349 347 341 338 338 335 330 329 329 331 333 335 334 331 329 327 324 323 324 325 326 325 322 318 312 301 285 269 263 271 291 305 312 317 320 320 319 319 319 321 322 322 320 318 318 319 321 323 324 326 328 331 334 338 342 345 346 346 346 347 347 348 349 350 350 349 347 346 346 346 347 348 347 346 345 346 347 348 349 350 352 353 354
348 347 350 351 348 342 340 339 336 332 328 325 322 322 321 320 321 321 320 319 320 322 324 323 319 310 297 282 267 264 281 305 315 316 316 318 320 321 322 322 324 324 323 320 318 318 318 320 322 324 326 328 330 332 335 339 343 345 346 346 347 347 348 349 351 351 351 350 349 348 347 348 349 349 348 347 346 347 348 350 350 350 351 353 355
346 346 348 351 352 349 345 343 341 339 336 332 327 322 317 314 314 315 316 317 319 321 324 324 318 302 284 276 279 298 314 318 314 314 318 321 323 324 324 324 323 323 321 318 317 318 319 322 324 326 328 330 331 333 336 340 342 344 346 347 348 348 349 350 351 352 352 351 351 349 349 349 350 350 350 349 348 347 349 351 352 351 352 353 355
345 345 345 346 348 349 348 346 344 341 338 337 335 332 327 322 318 316 316 318 321 323 323 320 309 289 280 287 300 309 311 311 312 318 322 324 323 322 322 322 321 321 320 318 318 319 321 324 326 327 329 330 331 333 337 339 342 344 346 347 348 349 350 351 352 352 353 353 352 351 350 351 351 351 351 351 350 349 350 352 353 353 353 353 354